| time (UTC) | temp F | wind direction | speed MPH | gust MPH | rain 1hr in | rain 24hr in | rain mn in | humidity % | barometer mb |
| 20260506172152 | 54 | 286 | 7.0 | 14.0 | 0.00 | 0.00 | 0.00 | 36 | 1020.1 |
| 20260506171618 | 55 | 277 | 6.0 | 12.0 | 0.00 | 0.00 | 0.00 | 36 | 1020.1 |
| 20260506171117 | 55 | 247 | 9.0 | 12.0 | 0.00 | 0.00 | 0.00 | 35 | 1020.2 |
| 20260506170622 | 55 | 48 | 5.0 | 12.0 | 0.00 | 0.00 | 0.00 | 36 | 1020.3 |
| 20260506170140 | 55 | 248 | 3.0 | 10.0 | 0.00 | 0.00 | 0.00 | 38 | 1020.1 |
| 20260506165626 | 54 | 356 | 4.0 | 10.0 | 0.00 | 0.00 | 0.00 | 37 | 1020.3 |
| 20260506165122 | 54 | 262 | 5.0 | 9.0 | 0.00 | 0.00 | 0.00 | 38 | 1020.3 |
| 20260506164627 | 54 | 228 | 4.0 | 10.0 | 0.00 | 0.00 | 0.00 | 37 | 1020.4 |
| 20260506164125 | 54 | 206 | 6.0 | 10.0 | 0.00 | 0.00 | 0.00 | 40 | 1020.4 |
| 20260506163628 | 54 | 9 | 3.0 | 9.0 | 0.00 | 0.00 | 0.00 | 42 | 1020.3 |
| 20260506163125 | 53 | 240 | 4.0 | 9.0 | 0.00 | 0.00 | 0.00 | 41 | 1020.4 |
| 20260506162631 | 53 | 77 | 4.0 | 10.0 | 0.00 | 0.00 | 0.00 | 40 | 1020.5 |
| 20260506162155 | 52 | 267 | 4.0 | 10.0 | 0.00 | 0.00 | 0.00 | 41 | 1020.3 |
| 20260506161654 | 53 | 271 | 3.0 | 7.0 | 0.00 | 0.00 | 0.00 | 41 | 1020.3 |
| 20260506161129 | 52 | 81 | 1.0 | 11.0 | 0.00 | 0.00 | 0.00 | 44 | 1020.4 |
| 20260506160634 | 52 | 111 | 1.0 | 12.0 | 0.00 | 0.00 | 0.00 | 41 | 1020.3 |
| 20260506160133 | 52 | 337 | 4.0 | 12.0 | 0.00 | 0.00 | 0.00 | 40 | 1020.3 |
| 20260506155624 | 52 | 339 | 5.0 | 6.0 | 0.00 | 0.00 | 0.00 | 41 | 1020.3 |
| 20260506155125 | 52 | 332 | 4.0 | 11.0 | 0.00 | 0.00 | 0.00 | 42 | 1020.3 |
| 20260506154633 | 52 | 9 | 3.0 | 11.0 | 0.00 | 0.00 | 0.00 | 41 | 1020.3 |
| 20260506154114 | 52 | 288 | 5.0 | 9.0 | 0.00 | 0.00 | 0.00 | 41 | 1020.3 |
| 20260506153623 | 51 | 307 | 2.0 | 8.0 | 0.00 | 0.00 | 0.00 | 43 | 1020.3 |
| 20260506153120 | 51 | 323 | 3.0 | 8.0 | 0.00 | 0.00 | 0.00 | 42 | 1020.3 |
| 20260506152627 | 51 | 358 | 1.0 | 8.0 | 0.00 | 0.00 | 0.00 | 43 | 1020.3 |
| 20260506152126 | 51 | 324 | 3.0 | 10.0 | 0.00 | 0.00 | 0.00 | 43 | 1020.3 |
| 20260506151633 | 51 | 300 | 3.0 | 10.0 | 0.00 | 0.00 | 0.00 | 43 | 1020.4 |
| 20260506151133 | 51 | 19 | 3.0 | 7.0 | 0.00 | 0.00 | 0.00 | 42 | 1020.3 |
| 20260506150620 | 52 | 275 | 4.0 | 7.0 | 0.00 | 0.00 | 0.00 | 43 | 1020.4 |
| 20260506150124 | 51 | 53 | 3.0 | 7.0 | 0.00 | 0.00 | 0.00 | 42 | 1020.4 |
| 20260506145633 | 51 | 287 | 3.0 | 7.0 | 0.00 | 0.00 | 0.00 | 46 | 1020.4 |
| 20260506145114 | 50 | 298 | 1.0 | 7.0 | 0.00 | 0.00 | 0.00 | 46 | 1020.5 |
| 20260506144621 | 50 | 309 | 4.0 | 8.0 | 0.00 | 0.00 | 0.00 | 45 | 1020.4 |
| 20260506144118 | 50 | 286 | 4.0 | 8.0 | 0.00 | 0.00 | 0.00 | 46 | 1020.4 |
| 20260506143618 | 50 | 321 | 3.0 | 5.0 | 0.00 | 0.00 | 0.00 | 45 | 1020.4 |
| 20260506143134 | 49 | 350 | 1.0 | 7.0 | 0.00 | 0.00 | 0.00 | 46 | 1020.4 |
| 20260506142638 | 49 | 237 | 2.0 | 7.0 | 0.00 | 0.00 | 0.00 | 47 | 1020.3 |
| 20260506142122 | 49 | 65 | 1.0 | 7.0 | 0.00 | 0.00 | 0.00 | 48 | 1020.4 |
| 20260506141630 | 49 | 36 | 2.0 | 7.0 | 0.00 | 0.00 | 0.00 | 46 | 1020.3 |
| 20260506141129 | 49 | 19 | 1.0 | 4.0 | 0.00 | 0.00 | 0.00 | 47 | 1020.3 |
| 20260506140635 | 48 | 19 | 1.0 | 5.0 | 0.00 | 0.00 | 0.00 | 48 | 1020.2 |
| 20260506140136 | 48 | 277 | 2.0 | 5.0 | 0.00 | 0.00 | 0.00 | 48 | 1020.1 |
| 20260506135624 | 48 | 333 | 1.0 | 5.0 | 0.00 | 0.00 | 0.00 | 50 | 1020.1 |
| 20260506135119 | 47 | 264 | 3.0 | 5.0 | 0.00 | 0.00 | 0.00 | 50 | 1020.1 |
| 20260506134627 | 47 | 354 | 0.0 | 4.0 | 0.00 | 0.00 | 0.00 | 52 | 1020.1 |
| 20260506134130 | 46 | 320 | 1.0 | 4.0 | 0.00 | 0.00 | 0.00 | 52 | 1020.0 |
| 20260506133634 | 46 | 324 | 2.0 | 4.0 | 0.00 | 0.00 | 0.00 | 53 | 1020.0 |
| 20260506133133 | 45 | 315 | 1.0 | 3.0 | 0.00 | 0.00 | 0.00 | 55 | 1019.0 |
| 20260506132617 | 45 | 324 | 1.0 | 5.0 | 0.00 | 0.00 | 0.00 | 56 | 1019.0 |
| 20260506132117 | 44 | 314 | 2.0 | 5.0 | 0.00 | 0.00 | 0.00 | 57 | 1018.9 |
| 20260506131623 | 44 | 327 | 2.0 | 5.0 | 0.00 | 0.00 | 0.00 | 57 | 1018.8 |
| 20260506131124 | 44 | 320 | 0.0 | 4.0 | 0.00 | 0.00 | 0.00 | 58 | 1018.8 |
| 20260506130627 | 43 | 58 | 1.0 | 4.0 | 0.00 | 0.00 | 0.00 | 58 | 1018.7 |
| 20260506130128 | 43 | 354 | 0.0 | 5.0 | 0.00 | 0.00 | 0.00 | 60 | 1018.7 |
| 20260506125636 | 42 | 352 | 2.0 | 5.0 | 0.00 | 0.00 | 0.00 | 59 | 1018.8 |
| 20260506125155 | 42 | 353 | 1.0 | 5.0 | 0.00 | 0.00 | 0.00 | 61 | 1018.7 |
| 20260506124657 | 41 | 290 | 0.0 | 5.0 | 0.00 | 0.00 | 0.00 | 62 | 1018.6 |
| 20260506124134 | 40 | 351 | 1.0 | 4.0 | 0.00 | 0.00 | 0.00 | 64 | 1018.5 |
| 20260506123622 | 40 | 356 | 1.0 | 3.0 | 0.00 | 0.00 | 0.00 | 67 | 1018.4 |
| 20260506123126 | 39 | 19 | 0.0 | 1.0 | 0.00 | 0.00 | 0.00 | 69 | 1018.4 |
| 20260506122634 | 38 | 19 | 0.0 | 1.0 | 0.00 | 0.00 | 0.00 | 70 | 1018.2 |
| 20260506122146 | 38 | 19 | 0.0 | 2.0 | 0.00 | 0.00 | 0.00 | 72 | 1018.2 |
| 20260506121629 | 37 | 19 | 0.0 | 2.0 | 0.00 | 0.00 | 0.00 | 74 | 1018.1 |
| 20260506121127 | 36 | 19 | 0.0 | 0.0 | 0.00 | 0.00 | 0.00 | 76 | 1018.0 |
| 20260506120636 | 36 | 19 | 0.0 | 0.0 | 0.00 | 0.00 | 0.00 | 75 | 1018.0 |
| 20260506120121 | 36 | 19 | 0.0 | 0.0 | 0.00 | 0.00 | 0.00 | 74 | 1018.9 |
| 20260506115626 | 36 | 19 | 0.0 | 0.0 | 0.00 | 0.00 | 0.00 | 74 | 1018.8 |
| 20260506115126 | 36 | 19 | 0.0 | 0.0 | 0.00 | 0.00 | 0.00 | 74 | 1018.7 |
| 20260506114629 | 36 | 19 | 0.0 | 0.0 | 0.00 | 0.00 | 0.00 | 72 | 1018.6 |
| 20260506114128 | 36 | 19 | 0.0 | 0.0 | 0.00 | 0.00 | 0.00 | 72 | 1018.6 |
| 20260506113631 | 37 | 19 | 0.0 | 0.0 | 0.00 | 0.00 | 0.00 | 71 | 1018.6 |
| 20260506113117 | 37 | 19 | 0.0 | 0.0 | 0.00 | 0.00 | 0.00 | 71 | 1018.5 |
| 20260506112644 | 37 | 19 | 0.0 | 0.0 | 0.00 | 0.00 | 0.00 | 69 | 1018.5 |
| 20260506112121 | 37 | 19 | 0.0 | 0.0 | 0.00 | 0.00 | 0.00 | 68 | 1018.4 |
| 20260506111646 | 38 | 19 | 0.0 | 0.0 | 0.00 | 0.00 | 0.00 | 68 | 1018.5 |
| 20260506111122 | 38 | 19 | 0.0 | 0.0 | 0.00 | 0.00 | 0.00 | 68 | 1018.4 |
| 20260506110628 | 38 | 19 | 0.0 | 0.0 | 0.00 | 0.00 | 0.00 | 67 | 1018.4 |
| 20260506110132 | 38 | 19 | 0.0 | 0.0 | 0.00 | 0.00 | 0.00 | 65 | 1018.5 |
| 20260506105636 | 39 | 19 | 0.0 | 0.0 | 0.00 | 0.00 | 0.00 | 64 | 1018.5 |
| 20260506105117 | 39 | 19 | 0.0 | 0.0 | 0.00 | 0.00 | 0.00 | 64 | 1018.5 |
| 20260506104623 | 39 | 19 | 0.0 | 0.0 | 0.00 | 0.00 | 0.00 | 63 | 1018.4 |
| 20260506104121 | 40 | 19 | 0.0 | 0.0 | 0.00 | 0.00 | 0.00 | 62 | 1018.4 |
| 20260506103628 | 40 | 19 | 0.0 | 0.0 | 0.00 | 0.00 | 0.00 | 61 | 1018.3 |
| 20260506103150 | 41 | 19 | 0.0 | 0.0 | 0.00 | 0.00 | 0.00 | 60 | 1018.3 |
| 20260506102633 | 41 | 19 | 0.0 | 0.0 | 0.00 | 0.00 | 0.00 | 59 | 1018.3 |
| 20260506102133 | 41 | 19 | 0.0 | 0.0 | 0.00 | 0.00 | 0.00 | 58 | 1018.2 |
| 20260506101620 | 41 | 19 | 0.0 | 1.0 | 0.00 | 0.00 | 0.00 | 57 | 1018.1 |
| 20260506101121 | 42 | 19 | 0.0 | 2.0 | 0.00 | 0.00 | 0.00 | 56 | 1018.1 |
| 20260506100628 | 42 | 45 | 0.0 | 2.0 | 0.00 | 0.00 | 0.00 | 56 | 1018.1 |
| 20260506100132 | 42 | 356 | 0.0 | 2.0 | 0.00 | 0.00 | 0.00 | 55 | 1018.0 |
| 20260506095635 | 42 | 356 | 0.0 | 2.0 | 0.00 | 0.00 | 0.00 | 55 | 1018.0 |
| 20260506095133 | 42 | 358 | 0.0 | 2.0 | 0.00 | 0.00 | 0.00 | 54 | 1018.0 |
| 20260506094637 | 43 | 345 | 0.0 | 3.0 | 0.00 | 0.00 | 0.00 | 54 | 1018.0 |
| 20260506094138 | 43 | 345 | 1.0 | 3.0 | 0.00 | 0.00 | 0.00 | 54 | 1017.9 |
| 20260506093628 | 43 | 60 | 1.0 | 3.0 | 0.00 | 0.00 | 0.00 | 53 | 1017.9 |
| 20260506093126 | 43 | 5 | 0.0 | 1.0 | 0.00 | 0.00 | 0.00 | 53 | 1017.8 |
| 20260506092631 | 43 | 329 | 0.0 | 5.0 | 0.00 | 0.00 | 0.00 | 52 | 1017.7 |
| 20260506092130 | 43 | 329 | 1.0 | 5.0 | 0.00 | 0.00 | 0.00 | 52 | 1017.7 |
| 20260506091654 | 44 | 9 | 0.0 | 3.0 | 0.00 | 0.00 | 0.00 | 53 | 1017.6 |
| 20260506091156 | 44 | 343 | 1.0 | 3.0 | 0.00 | 0.00 | 0.00 | 52 | 1017.6 |
| 20260506090619 | 44 | 343 | 0.0 | 1.0 | 0.00 | 0.00 | 0.00 | 52 | 1017.5 |
| 20260506090117 | 44 | 14 | 0.0 | 1.0 | 0.00 | 0.00 | 0.00 | 52 | 1017.4 |
| 20260506085619 | 44 | 350 | 0.0 | 2.0 | 0.00 | 0.00 | 0.00 | 52 | 1017.5 |
| 20260506085117 | 44 | 350 | 0.0 | 2.0 | 0.00 | 0.00 | 0.00 | 51 | 1017.4 |
| 20260506084624 | 44 | 350 | 1.0 | 3.0 | 0.00 | 0.00 | 0.00 | 50 | 1017.3 |
| 20260506084120 | 45 | 333 | 0.0 | 3.0 | 0.00 | 0.00 | 0.00 | 50 | 1017.3 |
| 20260506083632 | 45 | 333 | 0.0 | 4.0 | 0.00 | 0.00 | 0.00 | 50 | 1017.3 |
| 20260506083131 | 45 | 43 | 0.0 | 1.0 | 0.00 | 0.00 | 0.00 | 50 | 1017.2 |
| 20260506082635 | 45 | 43 | 0.0 | 1.0 | 0.00 | 0.00 | 0.00 | 50 | 1017.2 |
| 20260506082133 | 45 | 43 | 0.0 | 2.0 | 0.00 | 0.00 | 0.00 | 50 | 1017.2 |
| 20260506081620 | 45 | 43 | 0.0 | 2.0 | 0.00 | 0.00 | 0.00 | 49 | 1017.1 |
| 20260506081135 | 45 | 14 | 0.0 | 3.0 | 0.00 | 0.00 | 0.00 | 49 | 1017.2 |
| 20260506080622 | 45 | 31 | 1.0 | 2.0 | 0.00 | 0.00 | 0.00 | 49 | 1017.2 |
| 20260506080126 | 45 | 9 | 0.0 | 1.0 | 0.00 | 0.00 | 0.00 | 49 | 1017.2 |
| 20260506073127 | 46 | 14 | 0.0 | 2.0 | 0.00 | 0.00 | 0.00 | 49 | 1016.9 |
| 20260506072631 | 46 | 14 | 0.0 | 1.0 | 0.00 | 0.00 | 0.00 | 48 | 1016.9 |
| 20260506072145 | 46 | 23 | 0.0 | 1.0 | 0.00 | 0.00 | 0.00 | 48 | 1016.9 |
| 20260506071648 | 46 | 23 | 0.0 | 3.0 | 0.00 | 0.00 | 0.00 | 47 | 1016.8 |
| 20260506071129 | 46 | 23 | 1.0 | 3.0 | 0.00 | 0.00 | 0.00 | 47 | 1016.9 |
| 20260506070634 | 46 | 29 | 1.0 | 2.0 | 0.00 | 0.00 | 0.00 | 46 | 1016.8 |
| 20260506070133 | 46 | 35 | 0.0 | 3.0 | 0.00 | 0.02 | 0.00 | 46 | 1016.9 |
| 20260506062117 | 47 | 48 | 1.0 | 4.0 | 0.00 | 0.02 | 0.00 | 45 | 1016.8 |
| 20260506061621 | 47 | 33 | 0.0 | 4.0 | 0.00 | 0.02 | 0.00 | 45 | 1016.8 |
| 20260506061123 | 47 | 90 | 2.0 | 4.0 | 0.00 | 0.02 | 0.00 | 45 | 1016.8 |
| 20260506060635 | 47 | 25 | 1.0 | 4.0 | 0.00 | 0.02 | 0.00 | 45 | 1016.8 |
| 20260506060133 | 47 | 80 | 2.0 | 4.0 | 0.00 | 0.02 | 0.00 | 45 | 1016.7 |
| 20260506051117 | 49 | 48 | 2.0 | 8.0 | 0.00 | 0.02 | 0.00 | 42 | 1016.2 |
| 20260506050646 | 49 | 56 | 1.0 | 4.0 | 0.00 | 0.02 | 0.00 | 42 | 1016.2 |
| 20260506050144 | 49 | 343 | 2.0 | 4.0 | 0.00 | 0.03 | 0.00 | 42 | 1016.2 |
| 20260506045117 | 49 | 9 | 1.0 | 5.0 | 0.00 | 0.03 | 0.02 | 42 | 1016.1 |
| 20260506044621 | 49 | 25 | 3.0 | 5.0 | 0.00 | 0.03 | 0.02 | 42 | 1015.9 |
| 20260506044122 | 49 | 306 | 2.0 | 5.0 | 0.00 | 0.03 | 0.02 | 42 | 1016.0 |
| 20260506043630 | 49 | 31 | 1.0 | 5.0 | 0.00 | 0.03 | 0.02 | 42 | 1016.0 |
| 20260506043132 | 49 | 2 | 1.0 | 5.0 | 0.00 | 0.03 | 0.02 | 42 | 1016.0 |
| 20260506042625 | 49 | 33 | 1.0 | 5.0 | 0.00 | 0.03 | 0.02 | 42 | 1015.9 |
| 20260506042125 | 49 | 29 | 2.0 | 5.0 | 0.00 | 0.03 | 0.02 | 42 | 1015.8 |
| 20260506041629 | 50 | 332 | 0.0 | 3.0 | 0.00 | 0.03 | 0.02 | 42 | 1015.7 |
| 20260506041126 | 50 | 339 | 0.0 | 3.0 | 0.00 | 0.03 | 0.02 | 42 | 1015.7 |
| 20260506040633 | 50 | 49 | 1.0 | 4.0 | 0.00 | 0.03 | 0.02 | 42 | 1015.7 |
| 20260506040141 | 50 | 23 | 1.0 | 5.0 | 0.00 | 0.03 | 0.02 | 42 | 1015.6 |
| 20260506035622 | 50 | 9 | 3.0 | 5.0 | 0.00 | 0.03 | 0.02 | 41 | 1015.7 |
| 20260506035120 | 50 | 352 | 0.0 | 4.0 | 0.00 | 0.03 | 0.02 | 42 | 1015.8 |
| 20260506034625 | 50 | 54 | 0.0 | 2.0 | 0.00 | 0.03 | 0.02 | 42 | 1015.7 |
| 20260506034123 | 50 | 58 | 0.0 | 3.0 | 0.00 | 0.03 | 0.02 | 42 | 1015.6 |
| 20260506033631 | 50 | 43 | 0.0 | 3.0 | 0.00 | 0.03 | 0.02 | 41 | 1015.6 |
| 20260506033129 | 50 | 29 | 1.0 | 4.0 | 0.00 | 0.03 | 0.02 | 42 | 1015.6 |
| 20260506032636 | 50 | 334 | 1.0 | 4.0 | 0.00 | 0.03 | 0.02 | 42 | 1015.5 |
| 20260506032135 | 50 | 35 | 0.0 | 3.0 | 0.00 | 0.03 | 0.02 | 41 | 1015.4 |
| 20260506031624 | 51 | 73 | 0.0 | 6.0 | 0.00 | 0.03 | 0.02 | 41 | 1015.3 |
| 20260506031123 | 51 | 344 | 2.0 | 6.0 | 0.00 | 0.03 | 0.02 | 41 | 1015.2 |
| 20260506030625 | 51 | 5 | 2.0 | 5.0 | 0.00 | 0.03 | 0.02 | 40 | 1015.1 |
| 20260506030122 | 51 | 348 | 0.0 | 6.0 | 0.00 | 0.03 | 0.02 | 41 | 1015.1 |
| 20260506025627 | 51 | 36 | 1.0 | 6.0 | 0.00 | 0.03 | 0.02 | 41 | 1015.0 |
| 20260506025125 | 51 | 339 | 1.0 | 4.0 | 0.00 | 0.03 | 0.02 | 41 | 1015.0 |
| 20260506024620 | 51 | 25 | 2.0 | 4.0 | 0.00 | 0.03 | 0.02 | 41 | 1014.9 |
| 20260506024117 | 51 | 19 | 1.0 | 4.0 | 0.00 | 0.03 | 0.02 | 40 | 1014.9 |
| 20260506023617 | 51 | 25 | 1.0 | 3.0 | 0.00 | 0.03 | 0.02 | 41 | 1014.8 |
| 20260506023133 | 51 | 29 | 0.0 | 4.0 | 0.00 | 0.03 | 0.02 | 41 | 1014.8 |
| 20260506022657 | 51 | 57 | 3.0 | 7.0 | 0.00 | 0.03 | 0.02 | 40 | 1014.7 |
| 20260506022117 | 52 | 77 | 1.0 | 7.0 | 0.00 | 0.03 | 0.02 | 40 | 1014.6 |
| 20260506021624 | 52 | 44 | 2.0 | 6.0 | 0.00 | 0.03 | 0.02 | 40 | 1014.5 |
| 20260506021124 | 52 | 357 | 3.0 | 6.0 | 0.00 | 0.03 | 0.02 | 39 | 1014.5 |
| 20260506020627 | 52 | 241 | 1.0 | 3.0 | 0.00 | 0.03 | 0.02 | 40 | 1014.5 |
| 20260506020127 | 52 | 310 | 1.0 | 7.0 | 0.00 | 0.03 | 0.02 | 40 | 1014.4 |
| 20260506015631 | 52 | 310 | 1.0 | 7.0 | 0.00 | 0.03 | 0.02 | 40 | 1014.3 |
| 20260506015127 | 52 | 27 | 2.0 | 4.0 | 0.00 | 0.03 | 0.02 | 40 | 1014.3 |
| 20260506014651 | 52 | 77 | 2.0 | 7.0 | 0.00 | 0.03 | 0.02 | 40 | 1014.2 |
| 20260506014131 | 52 | 19 | 3.0 | 7.0 | 0.00 | 0.03 | 0.02 | 40 | 1014.1 |
| 20260506013657 | 52 | 359 | 2.0 | 6.0 | 0.00 | 0.03 | 0.02 | 39 | 1014.0 |
| 20260506013115 | 53 | 19 | 1.0 | 6.0 | 0.00 | 0.03 | 0.02 | 40 | 1013.9 |
| 20260506012623 | 53 | 287 | 1.0 | 7.0 | 0.00 | 0.03 | 0.02 | 40 | 1014.0 |
| 20260506012121 | 53 | 304 | 2.0 | 7.0 | 0.00 | 0.03 | 0.02 | 40 | 1013.9 |
| 20260506011645 | 53 | 350 | 1.0 | 7.0 | 0.00 | 0.03 | 0.02 | 40 | 1013.9 |
| 20260506011121 | 53 | 54 | 3.0 | 6.0 | 0.00 | 0.03 | 0.02 | 40 | 1013.7 |
| 20260506010625 | 53 | 281 | 3.0 | 6.0 | 0.00 | 0.03 | 0.02 | 39 | 1013.7 |
| 20260506010123 | 53 | 29 | 3.0 | 7.0 | 0.00 | 0.03 | 0.02 | 39 | 1013.7 |
| 20260506005627 | 53 | 39 | 2.0 | 7.0 | 0.00 | 0.03 | 0.02 | 39 | 1013.7 |
| 20260506005122 | 53 | 357 | 2.0 | 7.0 | 0.00 | 0.03 | 0.02 | 40 | 1013.7 |
| 20260506004626 | 53 | 121 | 2.0 | 7.0 | 0.00 | 0.03 | 0.02 | 39 | 1013.6 |
| 20260506004123 | 54 | 38 | 2.0 | 8.0 | 0.00 | 0.03 | 0.02 | 39 | 1013.5 |
| 20260506003625 | 54 | 176 | 3.0 | 8.0 | 0.00 | 0.03 | 0.02 | 38 | 1013.4 |
| 20260506003144 | 54 | 345 | 2.0 | 8.0 | 0.00 | 0.03 | 0.02 | 39 | 1013.4 |
| 20260506002627 | 54 | 330 | 2.0 | 11.0 | 0.00 | 0.03 | 0.02 | 38 | 1013.4 |
| 20260506002126 | 54 | 119 | 3.0 | 11.0 | 0.00 | 0.03 | 0.02 | 38 | 1013.4 |
| 20260506001614 | 54 | 339 | 1.0 | 11.0 | 0.00 | 0.03 | 0.02 | 38 | 1013.3 |
| 20260506001134 | 54 | 298 | 3.0 | 9.0 | 0.00 | 0.03 | 0.02 | 38 | 1013.4 |
| 20260506000618 | 54 | 19 | 2.0 | 6.0 | 0.00 | 0.03 | 0.02 | 37 | 1013.4 |
| 20260506000121 | 54 | 337 | 3.0 | 12.0 | 0.00 | 0.03 | 0.02 | 38 | 1013.3 |
| 20260505235644 | 54 | 33 | 2.0 | 12.0 | 0.00 | 0.03 | 0.02 | 37 | 1013.3 |
| 20260505235121 | 54 | 4 | 3.0 | 12.0 | 0.00 | 0.03 | 0.02 | 38 | 1013.2 |
| 20260505234646 | 55 | 73 | 4.0 | 12.0 | 0.00 | 0.03 | 0.02 | 37 | 1013.2 |
| 20260505234146 | 55 | 75 | 3.0 | 10.0 | 0.00 | 0.03 | 0.02 | 37 | 1013.2 |
| 20260505233630 | 55 | 78 | 2.0 | 11.0 | 0.00 | 0.03 | 0.02 | 36 | 1013.2 |
| 20260505233128 | 55 | 355 | 4.0 | 11.0 | 0.00 | 0.03 | 0.02 | 36 | 1013.1 |
| 20260505232633 | 55 | 285 | 2.0 | 14.0 | 0.00 | 0.03 | 0.02 | 37 | 1013.0 |
| 20260505232136 | 56 | 43 | 4.0 | 14.0 | 0.00 | 0.03 | 0.02 | 37 | 1013.0 |
| 20260505231624 | 56 | 52 | 3.0 | 12.0 | 0.00 | 0.03 | 0.02 | 37 | 1013.0 |
| 20260505231123 | 56 | 321 | 5.0 | 12.0 | 0.00 | 0.03 | 0.02 | 37 | 1012.9 |
| 20260505230633 | 56 | 354 | 4.0 | 14.0 | 0.00 | 0.03 | 0.02 | 36 | 1012.8 |
| 20260505230116 | 57 | 48 | 2.0 | 14.0 | 0.00 | 0.03 | 0.02 | 37 | 1012.8 |
| 20260505225623 | 57 | 93 | 4.0 | 10.0 | 0.00 | 0.03 | 0.02 | 37 | 1012.8 |
| 20260505225121 | 57 | 352 | 4.0 | 10.0 | 0.00 | 0.03 | 0.02 | 36 | 1012.8 |
| 20260505224626 | 57 | 243 | 3.0 | 8.0 | 0.00 | 0.03 | 0.02 | 36 | 1012.6 |
| 20260505224125 | 58 | 301 | 2.0 | 8.0 | 0.00 | 0.03 | 0.02 | 36 | 1012.7 |
| 20260505223629 | 57 | 9 | 2.0 | 8.0 | 0.00 | 0.03 | 0.02 | 36 | 1012.7 |
| 20260505223127 | 57 | 285 | 3.0 | 11.0 | 0.00 | 0.03 | 0.02 | 36 | 1012.8 |
| 20260505222651 | 57 | 45 | 3.0 | 8.0 | 0.00 | 0.03 | 0.02 | 36 | 1012.7 |
| 20260505222128 | 57 | 238 | 3.0 | 8.0 | 0.00 | 0.03 | 0.02 | 36 | 1012.7 |
| 20260505221635 | 57 | 223 | 3.0 | 10.0 | 0.00 | 0.03 | 0.02 | 37 | 1012.5 |
| 20260505221116 | 57 | 301 | 3.0 | 9.0 | 0.00 | 0.03 | 0.02 | 36 | 1012.6 |
| 20260505220625 | 57 | 318 | 3.0 | 9.0 | 0.00 | 0.03 | 0.02 | 36 | 1012.6 |
| 20260505220125 | 57 | 350 | 3.0 | 9.0 | 0.00 | 0.03 | 0.02 | 36 | 1012.5 |
| 20260505215631 | 57 | 343 | 2.0 | 9.0 | 0.00 | 0.03 | 0.02 | 37 | 1012.5 |
| 20260505215149 | 58 | 331 | 4.0 | 8.0 | 0.00 | 0.03 | 0.02 | 37 | 1012.6 |
| 20260505214616 | 58 | 343 | 3.0 | 8.0 | 0.00 | 0.03 | 0.02 | 39 | 1012.6 |
| 20260505214135 | 58 | 73 | 2.0 | 8.0 | 0.00 | 0.03 | 0.02 | 38 | 1012.5 |
| 20260505213619 | 57 | 357 | 2.0 | 6.0 | 0.00 | 0.03 | 0.02 | 37 | 1012.6 |
| 20260505213117 | 57 | 19 | 2.0 | 8.0 | 0.00 | 0.03 | 0.02 | 38 | 1012.7 |
| 20260505212620 | 57 | 73 | 5.0 | 8.0 | 0.00 | 0.03 | 0.02 | 39 | 1012.8 |
| 20260505212117 | 57 | 52 | 1.0 | 7.0 | 0.00 | 0.03 | 0.02 | 38 | 1012.8 |
| 20260505211620 | 57 | 347 | 3.0 | 7.0 | 0.00 | 0.03 | 0.02 | 38 | 1012.9 |
| 20260505211138 | 58 | 58 | 4.0 | 7.0 | 0.00 | 0.03 | 0.02 | 39 | 1012.8 |
| 20260505210621 | 58 | 271 | 2.0 | 11.0 | 0.00 | 0.03 | 0.02 | 40 | 1012.8 |
| 20260505210123 | 57 | 129 | 6.0 | 11.0 | 0.00 | 0.03 | 0.02 | 38 | 1012.9 |
| 20260505205646 | 58 | 19 | 4.0 | 11.0 | 0.00 | 0.03 | 0.02 | 37 | 1013.0 |
| 20260505205124 | 58 | 342 | 4.0 | 11.0 | 0.00 | 0.03 | 0.02 | 37 | 1012.9 |
| 20260505204631 | 58 | 259 | 4.0 | 12.0 | 0.00 | 0.03 | 0.02 | 37 | 1013.0 |
| 20260505204133 | 58 | 330 | 4.0 | 14.0 | 0.00 | 0.03 | 0.02 | 37 | 1013.1 |
| 20260505203623 | 59 | 9 | 3.0 | 14.0 | 0.00 | 0.03 | 0.02 | 37 | 1013.0 |
| 20260505203120 | 59 | 309 | 6.0 | 9.0 | 0.00 | 0.03 | 0.02 | 38 | 1013.2 |
| 20260505202624 | 59 | 290 | 4.0 | 9.0 | 0.00 | 0.03 | 0.02 | 37 | 1013.1 |
| 20260505202122 | 59 | 48 | 4.0 | 12.0 | 0.00 | 0.03 | 0.02 | 38 | 1013.1 |
| 20260505201627 | 58 | 287 | 4.0 | 14.0 | 0.00 | 0.03 | 0.02 | 37 | 1013.1 |
| 20260505201149 | 58 | 63 | 5.0 | 14.0 | 0.00 | 0.03 | 0.02 | 36 | 1013.2 |
| 20260505200655 | 58 | 301 | 4.0 | 12.0 | 0.00 | 0.03 | 0.02 | 36 | 1013.2 |
| 20260505200135 | 59 | 226 | 4.0 | 9.0 | 0.00 | 0.03 | 0.02 | 36 | 1013.0 |
| 20260505195618 | 59 | 72 | 3.0 | 9.0 | 0.00 | 0.03 | 0.02 | 37 | 1013.1 |
| 20260505195139 | 59 | 9 | 2.0 | 10.0 | 0.00 | 0.03 | 0.02 | 38 | 1013.1 |
| 20260505194625 | 58 | 65 | 2.0 | 10.0 | 0.00 | 0.03 | 0.02 | 38 | 1013.1 |
| 20260505194143 | 58 | 64 | 3.0 | 9.0 | 0.00 | 0.03 | 0.02 | 39 | 1013.2 |
| 20260505193624 | 58 | 321 | 2.0 | 11.0 | 0.00 | 0.03 | 0.02 | 39 | 1013.3 |
| 20260505193126 | 58 | 43 | 3.0 | 11.0 | 0.00 | 0.03 | 0.02 | 38 | 1013.4 |
| 20260505192630 | 57 | 79 | 4.0 | 9.0 | 0.00 | 0.03 | 0.02 | 38 | 1013.3 |
| 20260505192132 | 57 | 45 | 4.0 | 7.0 | 0.00 | 0.03 | 0.02 | 39 | 1013.3 |
| 20260505191619 | 57 | 19 | 3.0 | 8.0 | 0.00 | 0.03 | 0.02 | 37 | 1013.5 |
| 20260505191117 | 57 | 329 | 3.0 | 11.0 | 0.00 | 0.03 | 0.02 | 38 | 1013.4 |
| 20260505190627 | 58 | 2 | 3.0 | 11.0 | 0.00 | 0.03 | 0.02 | 40 | 1013.5 |
| 20260505190126 | 57 | 356 | 4.0 | 9.0 | 0.00 | 0.03 | 0.02 | 39 | 1013.5 |
| 20260505185629 | 57 | 266 | 3.0 | 13.0 | 0.00 | 0.03 | 0.02 | 38 | 1013.5 |
| 20260505185127 | 58 | 9 | 5.0 | 13.0 | 0.00 | 0.03 | 0.02 | 37 | 1013.7 |
| 20260505184631 | 58 | 104 | 4.0 | 11.0 | 0.00 | 0.03 | 0.02 | 39 | 1013.4 |
| 20260505184128 | 59 | 279 | 2.0 | 8.0 | 0.00 | 0.03 | 0.02 | 37 | 1013.5 |
| 20260505183631 | 58 | 125 | 2.0 | 10.0 | 0.00 | 0.03 | 0.02 | 37 | 1013.6 |
| 20260505183126 | 58 | 93 | 1.0 | 10.0 | 0.00 | 0.03 | 0.02 | 38 | 1013.7 |
| 20260505182630 | 58 | 360 | 3.0 | 8.0 | 0.00 | 0.03 | 0.02 | 38 | 1013.7 |
| 20260505182148 | 57 | 53 | 3.0 | 7.0 | 0.00 | 0.03 | 0.02 | 42 | 1013.7 |
| 20260505181632 | 57 | 39 | 3.0 | 7.0 | 0.00 | 0.03 | 0.02 | 39 | 1013.7 |
| 20260505181117 | 57 | 297 | 4.0 | 7.0 | 0.00 | 0.03 | 0.02 | 39 | 1013.6 |
| 20260505180624 | 57 | 344 | 4.0 | 11.0 | 0.00 | 0.03 | 0.02 | 40 | 1013.6 |
| 20260505180124 | 57 | 269 | 3.0 | 11.0 | 0.00 | 0.03 | 0.02 | 41 | 1013.7 |
| 20260505175627 | 56 | 296 | 4.0 | 10.0 | 0.00 | 0.03 | 0.02 | 42 | 1013.7 |
| 20260505175124 | 55 | 355 | 1.0 | 10.0 | 0.00 | 0.03 | 0.02 | 46 | 1013.6 |
| 20260505174632 | 56 | 249 | 5.0 | 9.0 | 0.00 | 0.03 | 0.02 | 45 | 1013.6 |
| 20260505174135 | 55 | 54 | 2.0 | 9.0 | 0.00 | 0.03 | 0.02 | 45 | 1013.7 |
| 20260505173619 | 55 | 143 | 2.0 | 8.0 | 0.00 | 0.03 | 0.02 | 46 | 1013.8 |
| 20260505173117 | 56 | 239 | 5.0 | 8.0 | 0.00 | 0.03 | 0.02 | 47 | 1013.8 |
| 20260505172622 | 55 | 9 | 3.0 | 6.0 | 0.00 | 0.03 | 0.02 | 46 | 1014.0 |